DECAYED

STARLINK-32187, 60337 (Decayed)

Orbit data source: Space-Track

STARLINK-32187, 60337 was a payload satellite owned by SpaceX/Seattle (US) in LEO that was launched on Fri, 02 Aug 2024 UTC via an FALCON 9 launch vehicle from the Air Force Eastern Test Range (AFETR). Payload-class satellites include a variety of spacecraft equipped with specific instruments for various scientific and technological missions. These include communications satellites like Starlink; space stations such as the ISS; scientific satellites like the Hubble; Earth observation satellites from companies like Planet Labs, Umbra, and HawkEye 360; GPS; miniature CubeSats for education and research; and military/defense satellites.

Not visible in the next 10 days
Identifier
60337, 2024-136J
Orbit
Decayed
Last TLE update
9 months ago
Origin
Manufacturer
SpaceX/Seattle
Mission
Decayed Commercial Communications
Bus & Motor
STARLINK V2M, Unknown motor
Mass
730 kg wet, ~700 kg dry
Launch date (UTC)
2024-08-02 (11 months ago)
Launch vehicle
FALCON 9
Launch site
Air Force Eastern Test Range (AFETR)
Object type
Payload
Rocket body
Debris
Shape & HBR
Box + 2 Pan, 29 m
Radar Cross Section
33.884 m², Large (>1 m²)

Expand to show TLE details & history

TLE from 9 months ago
0 STARLINK-32187
1 60337U 24136J   24269.17904794  .04247004  12144-4  84954-3 0  9999
2 60337  53.1356   9.1664 0010681 345.3007  93.1598 16.30510420  9701
Epoch: 2024-09-25T04:17Z
TLE epoch observation values (Epoch: 2024-09-25T04:17:49.742Z)
Latitude
51.80588°
Longitude
11.60112°
Altitude
197.746 km
Speed
7.794 km/s
True Right ascension
05h 22m 09s
True Declination
51° 37' 28"
Sunlit
Object was in daylight at epoch
Visualization orbit readout
Visualization observer readout
Orbital elements
Apogee altitude
198.457 km
Perigee altitude
184.423 km
Semi-major axis
6,569.577 km
Eccentricity
0.00107
Inclination
53.1356°
RAAN
9.1664°
Arg. of periapsis
345.3007°
True anomaly
Unknown
Mean anomaly
93.1598°
Eccentric anomaly
Unknown
Mean motion
4.07603 °/min
Orbital period
88.32 mins
BSTAR
0.00084954
Loading maneuver chart data...
Loading SW <> Apogee altitude chart data...
Loading historical data...
Loading historical data...
Loading historical data...
Loading historical data...
Loading historical data...
Loading historical data...
Loading historical data...

STARLINK-32187 Visibility

Observer location: undefined°, undefined°

This satellite is decayed
Span
Click to sort rows by Start time (UTC) header in descending order
Start Az.
Max El. time (UTC)
Max El. Az.
Max El.
End time (UTC)
End Az.
|